Location: Unspecified
(0.0000°N, 0.0000°E)
Time: 05:07:57
(UTC+00:00)

Hubble Space Telescope - Pass Details

Date: 13 July 2024
Orbit: 509 x 513 km, 28.5° (Epoch: 24 July)

Event Time Altitude Azimuth Distance (km) Brightness Sun altitude
Exits shadow 04:35:56 35° 172° (S) 833 1.5 -20.8°
Drops below altitude 10° 04:38:44 10° 138° (SE) 1,721 3.6 -20.2°
Sets 04:41:03 0° 131° (SE) 2,607 4.6 -19.6°
